TimeCST,TemperatureF,Dew PointF,Humidity,Sea Level PressureIn,VisibilityMPH,Wind Direction,Wind SpeedMPH,Gust SpeedMPH,PrecipitationIn,Events,Conditions,WindDirDegrees,DateUTC
12:55 AM,30.0,28.0,92,29.72,0.5,North,20.7,27.6,0.03,Fog-Snow,Snow,350,2013-01-30 06:55:00
1:36 AM,28.4,28.4,100,29.69,0.5,NNW,19.6,28.8,0.03,Fog-Snow,Snow,340,2013-01-30 07:36:00
1:55 AM,28.9,27.0,92,29.73,0.2,NNW,16.1,28.8,0.04,Fog-Snow,Heavy Snow,340,2013-01-30 07:55:00
2:55 AM,28.0,26.1,92,29.76,0.8,NNW,17.3,29.9,0.02,Snow,Light Snow,340,2013-01-30 08:55:00
3:42 AM,26.6,24.8,93,29.75,0.5,North,20.7,29.9,0.00,Fog-Snow,Light Snow,350,2013-01-30 09:42:00
3:55 AM,27.0,25.0,92,29.79,0.8,NNW,17.3,27.6,0.00,Snow,Light Snow,340,2013-01-30 09:55:00
4:30 AM,24.8,21.2,86,29.77,0.8,NNW,18.4,33.4,0.01,Snow,Light Snow,340,2013-01-30 10:30:00
4:34 AM,24.8,21.2,86,29.78,0.8,NNW,21.9,33.4,0.01,Snow,Light Snow,340,2013-01-30 10:34:00
4:42 AM,23.0,19.4,86,29.78,0.8,NNW,27.6,35.7,0.01,Snow,Light Snow,340,2013-01-30 10:42:00
4:50 AM,23.0,19.4,86,29.78,0.8,NNW,21.9,35.7,0.01,Snow,Light Snow,340,2013-01-30 10:50:00
4:55 AM,23.0,19.9,88,29.82,1.0,NNW,19.6,29.9,0.01,Snow,Light Snow,340,2013-01-30 10:55:00
5:22 AM,23.0,19.4,86,29.80,1.0,NNW,20.7,34.5,0.00,Snow,Light Snow,340,2013-01-30 11:22:00
5:40 AM,21.2,17.6,86,29.81,1.0,NNW,24.2,40.3,0.00,Snow,Light Snow,340,2013-01-30 11:40:00
5:55 AM,21.9,18.0,85,29.87,1.0,NNW,25.3,34.5,0.00,Snow,Light Snow,330,2013-01-30 11:55:00
6:05 AM,21.2,17.6,86,29.83,0.8,NNW,24.2,29.9,0.00,Snow,Light Snow,340,2013-01-30 12:05:00
6:18 AM,21.2,17.6,86,29.84,1.5,NNW,23.0,36.8,0.00,Snow,Light Snow,340,2013-01-30 12:18:00
6:21 AM,21.2,17.6,86,29.83,2.0,NNW,25.3,36.8,0.00,,Overcast,330,2013-01-30 12:21:00
6:55 AM,21.0,17.1,85,29.90,2.0,NNW,26.5,38.0,0.00,Snow,Light Snow,330,2013-01-30 12:55:00
6:58 AM,21.2,15.8,80,29.85,1.5,NNW,26.5,38.0,0.00,Snow,Light Snow,340,2013-01-30 12:58:00
7:07 AM,21.2,15.8,80,29.86,2.0,NNW,23.0,32.2,0.00,,Overcast,340,2013-01-30 13:07:00
7:26 AM,21.2,15.8,80,29.87,5.0,NNW,19.6,27.6,0.00,,Overcast,330,2013-01-30 13:26:00
7:44 AM,19.4,14.0,80,29.88,2.5,NNW,19.6,29.9,0.00,Snow,Light Snow,330,2013-01-30 13:44:00
7:53 AM,19.4,14.0,80,29.89,4.0,NNW,17.3,26.5,0.00,Snow,Light Snow,330,2013-01-30 13:53:00
7:55 AM,19.9,14.0,78,29.94,4.0,NNW,20.7,26.5,0.00,,Overcast,330,2013-01-30 13:55:00
8:31 AM,19.4,12.2,74,29.89,8.0,NNW,17.3,24.2,0.00,,Overcast,330,2013-01-30 14:31:00
8:55 AM,19.9,12.9,74,29.95,10.0,NW,15.0,-,0.00,,Overcast,320,2013-01-30 14:55:00
9:55 AM,21.0,15.1,78,29.96,5.0,NW,13.8,-,0.00,,Haze,320,2013-01-30 15:55:00
10:55 AM,21.9,14.0,72,29.97,10.0,NNW,16.1,26.5,0.00,,Overcast,330,2013-01-30 16:55:00
11:32 AM,23.0,12.2,63,29.92,10.0,NNW,18.4,-,N/A,,Overcast,330,2013-01-30 17:32:00
11:50 AM,23.0,14.0,68,29.92,10.0,NW,19.6,24.2,N/A,,Overcast,320,2013-01-30 17:50:00
11:55 AM,23.0,14.0,68,29.96,10.0,NW,16.1,24.2,N/A,,Overcast,320,2013-01-30 17:55:00
12:26 PM,24.8,15.8,69,29.92,6.0,NW,12.7,21.9,0.00,,Overcast,310,2013-01-30 18:26:00
12:43 PM,24.8,15.8,69,29.91,10.0,NW,21.9,32.2,0.00,,Overcast,310,2013-01-30 18:43:00
12:55 PM,25.0,14.0,63,29.95,10.0,NW,21.9,-,0.00,,Overcast,310,2013-01-30 18:55:00
1:27 PM,24.8,14.0,64,29.91,10.0,NNW,17.3,-,N/A,,Mostly Cloudy,330,2013-01-30 19:27:00
1:38 PM,24.8,14.0,64,29.90,10.0,WNW,18.4,-,N/A,,Overcast,300,2013-01-30 19:38:00
1:55 PM,24.1,12.9,62,29.95,10.0,NW,15.0,21.9,N/A,,Overcast,310,2013-01-30 19:55:00
2:55 PM,25.0,12.9,60,29.94,10.0,NW,11.5,-,N/A,,Mostly Cloudy,320,2013-01-30 20:55:00
3:29 PM,24.8,12.2,59,29.90,10.0,NW,11.5,-,N/A,,Mostly Cloudy,310,2013-01-30 21:29:00
3:45 PM,23.0,12.2,63,29.90,10.0,WNW,12.7,-,N/A,,Scattered Clouds,300,2013-01-30 21:45:00
3:55 PM,24.1,14.0,65,29.96,10.0,WNW,11.5,-,N/A,,Partly Cloudy,300,2013-01-30 21:55:00
4:55 PM,24.1,12.9,62,29.97,10.0,WNW,9.2,-,N/A,,Scattered Clouds,300,2013-01-30 22:55:00
5:55 PM,21.0,12.9,71,29.97,10.0,West,3.5,-,N/A,,Clear,270,2013-01-30 23:55:00
6:55 PM,16.0,10.0,77,29.98,10.0,SW,5.8,-,N/A,,Clear,220,2013-01-31 00:55:00
7:55 PM,19.0,10.9,71,29.98,10.0,SSW,5.8,-,N/A,,Clear,210,2013-01-31 01:55:00
8:55 PM,17.1,10.0,74,29.99,10.0,SW,6.9,-,N/A,,Mostly Cloudy,220,2013-01-31 02:55:00
9:55 PM,16.0,10.0,77,29.96,10.0,South,6.9,-,N/A,,Clear,190,2013-01-31 03:55:00
10:55 PM,18.0,12.0,78,29.96,10.0,Calm,Calm,-,N/A,,Partly Cloudy,0,2013-01-31 04:55:00
11:55 PM,18.0,12.0,78,29.96,10.0,SW,4.6,-,N/A,,Mostly Cloudy,220,2013-01-31 05:55:00